Date String (YYYY-MM-DD hh:mm:ss) UTC,Instrument flags,Ambient pressure (hPa),Sample flow (lpm),Bypass flow (lpm),Sample temperature (°C),Ambient temperature (°C),ASC tube jacket temperature (°C),LED temperature (°C),Box temperature (°C),Sample RH (%),Span deviation,Mass concentration (μg/m³),Mass concentration (μg/m³),Mass concentration (μg/m³)
DateTimeUTC,F1_M11,P_M11,Q1_M11,Q2_M11,T1_M11,T2_M11,T3_M11,T4_M11,T5_M11,U1_M11,ZSPAN_M11,X0_M11,X2_M11,X1_M11
2023-05-11 15:00:00,,0824.8,5.00,0.00,25.7,24.2,00.0,34.0,27.5,30.1,0000.0,0003.54,0001.86,0001.10
2023-05-11 15:01:00,,0824.8,5.01,0.00,25.7,24.1,00.0,34.0,27.4,29.8,0000.0,0003.49,0001.82,0001.10
2023-05-11 15:02:00,,0824.8,5.00,0.00,25.7,24.2,00.0,34.0,27.4,29.8,0000.0,0003.41,0001.80,0001.10
2023-05-11 15:03:00,,0824.9,5.00,0.00,25.7,24.2,00.0,34.0,27.4,29.9,0000.0,0003.29,0001.80,0001.10
2023-05-11 15:04:00,,0824.9,4.99,0.00,25.7,24.2,00.0,34.0,27.4,30.3,0000.0,0003.25,0001.82,0001.11
2023-05-11 15:05:00,,0824.9,4.99,0.00,25.7,24.2,00.0,34.0,27.4,30.7,0000.0,0003.18,0001.80,0001.12
2023-05-11 15:06:00,,0824.9,4.99,0.00,25.7,24.2,00.0,34.0,27.5,30.5,0000.0,0003.09,0001.74,0001.15
2023-05-11 15:07:00,,0824.9,5.00,0.00,25.7,24.2,00.0,34.0,27.5,30.3,0000.0,0002.99,0001.74,0001.16
2023-05-11 15:08:00,,0824.8,5.01,0.00,25.7,24.2,00.0,34.0,27.5,30.5,0000.0,0003.07,0001.79,0001.20
2023-05-11 15:09:00,,0824.9,5.00,0.00,25.7,24.2,00.0,34.0,27.5,30.7,0000.0,0003.14,0001.83,0001.24
2023-05-11 15:10:00,,0824.8,5.00,0.00,25.7,24.2,00.0,34.0,27.5,30.8,0000.0,0003.29,0001.91,0001.29
2023-05-11 15:11:00,,0824.9,5.00,0.00,25.7,24.2,00.0,34.0,27.5,31.2,0000.0,0003.31,0001.98,0001.33
2023-05-11 15:12:00,,0824.9,5.00,0.00,25.7,24.2,00.0,34.0,27.5,31.1,0000.0,0003.72,0002.05,0001.39
2023-05-11 15:13:00,,0824.9,5.00,0.00,25.7,24.2,00.0,34.1,27.5,31.0,0000.0,0004.02,0002.15,0001.45
2023-05-11 15:14:00,,0824.9,4.99,0.00,25.7,24.1,00.0,34.1,27.5,30.8,0000.0,0004.13,0002.18,0001.49
2023-05-11 15:15:00,,0824.9,5.00,0.00,25.7,24.1,00.0,34.1,27.5,30.9,0000.0,0004.25,0002.22,0001.52
2023-05-11 15:16:00,,0824.9,5.01,0.00,25.7,24.1,00.0,34.1,27.5,31.1,0000.0,0004.59,0002.31,0001.57
2023-05-11 15:17:00,,0824.9,5.01,0.00,25.7,24.1,00.0,34.1,27.5,31.0,0000.0,0004.87,0002.40,0001.60
2023-05-11 15:18:00,,0824.9,5.01,0.00,25.7,24.1,00.0,34.1,27.5,30.9,0000.0,0004.94,0002.45,0001.63
2023-05-11 15:19:00,,0824.9,5.00,0.00,25.7,24.1,00.0,34.1,27.5,30.9,0000.0,0004.97,0002.47,0001.65
2023-05-11 15:20:00,,0825.0,4.99,0.00,25.7,24.2,00.0,34.1,27.5,30.9,0000.0,0004.97,0002.48,0001.67
2023-05-11 15:21:00,,0824.9,5.00,0.00,25.7,24.2,00.0,34.1,27.5,30.8,0000.0,0005.00,0002.49,0001.67
2023-05-11 15:22:00,,0824.9,5.01,0.00,25.7,24.2,00.0,34.1,27.4,30.6,0000.0,0004.96,0002.46,0001.67
2023-05-11 15:23:00,,0824.9,5.01,0.00,25.7,24.2,00.0,34.1,27.4,30.6,0000.0,0004.55,0002.42,0001.65
2023-05-11 15:24:00,,0824.9,4.99,0.00,25.7,24.2,00.0,34.1,27.4,30.7,0000.0,0004.30,0002.36,0001.62
2023-05-11 15:25:00,,0824.8,5.00,0.00,25.8,24.3,00.0,34.1,27.5,30.7,0000.0,0004.09,0002.30,0001.62
2023-05-11 15:26:00,,0824.7,4.99,0.00,25.8,24.3,00.0,34.1,27.5,30.7,0000.0,0003.95,0002.26,0001.61
2023-05-11 15:27:00,,0824.8,5.00,0.00,25.8,24.3,00.0,34.1,27.5,30.6,0000.0,0003.61,0002.19,0001.60
2023-05-11 15:28:00,,0824.7,5.00,0.00,25.8,24.3,00.0,34.1,27.5,30.6,0000.0,0003.44,0002.16,0001.60
2023-05-11 15:29:00,,0824.7,5.01,0.00,25.8,24.3,00.0,34.1,27.5,30.6,0000.0,0003.45,0002.16,0001.60
2023-05-11 15:30:00,,0824.8,5.00,0.00,25.8,24.3,00.0,34.1,27.5,30.8,0000.0,0003.39,0002.14,0001.60
2023-05-11 15:31:00,,0824.8,5.00,0.00,25.8,24.3,00.0,34.1,27.5,30.9,0000.0,0003.41,0002.17,0001.60
2023-05-11 15:32:00,,0824.9,5.00,0.00,25.8,24.3,00.0,34.1,27.5,30.9,0000.0,0003.35,0002.13,0001.59
2023-05-11 15:33:00,,0824.9,5.01,0.00,25.8,24.3,00.0,34.1,27.5,30.8,0000.0,0003.31,0002.12,0001.60
2023-05-11 15:34:00,,0824.9,5.01,0.00,25.8,24.4,00.0,34.1,27.5,30.8,0000.0,0003.20,0002.12,0001.60
2023-05-11 15:35:00,,0824.9,5.01,0.00,25.8,24.4,00.0,34.1,27.5,30.4,0000.0,0003.18,0002.12,0001.61
2023-05-11 15:36:00,,0824.9,5.00,0.00,25.8,24.4,00.0,34.2,27.6,30.3,0000.0,0003.29,0002.15,0001.61
2023-05-11 15:37:00,,0824.9,4.99,0.00,25.8,24.4,00.0,34.2,27.6,30.6,0000.0,0003.38,0002.19,0001.62
2023-05-11 15:38:00,,0824.9,5.00,0.00,25.8,24.4,00.0,34.2,27.6,30.5,0000.0,0003.48,0002.17,0001.60
2023-05-11 15:39:00,,0824.9,5.01,0.00,25.8,24.4,00.0,34.2,27.6,30.5,0000.0,0003.41,0002.13,0001.60
2023-05-11 15:40:00,,0824.9,5.01,0.00,25.8,24.4,00.0,34.2,27.6,30.5,0000.0,0003.46,0002.15,0001.59
2023-05-11 15:41:00,,0824.9,5.00,0.00,25.9,24.4,00.0,34.2,27.6,30.8,0000.0,0003.48,0002.16,0001.59
2023-05-11 15:42:00,,0824.9,5.00,0.00,25.9,24.4,00.0,34.2,27.6,30.7,0000.0,0003.46,0002.13,0001.58
2023-05-11 15:43:00,,0824.9,5.00,0.00,25.9,24.4,00.0,34.2,27.6,30.7,0000.0,0003.82,0002.15,0001.58
2023-05-11 15:44:00,,0824.9,5.00,0.00,25.9,24.4,00.0,34.2,27.7,30.6,0000.0,0003.86,0002.16,0001.58
2023-05-11 15:45:00,,0824.9,5.00,0.00,25.9,24.4,00.0,34.2,27.6,30.4,0000.0,0003.86,0002.16,0001.56
2023-05-11 15:46:00,,0824.9,5.00,0.00,25.9,24.4,00.0,34.2,27.6,29.9,0000.0,0003.91,0002.17,0001.54
2023-05-11 15:47:00,,0824.9,4.99,0.00,25.9,24.4,00.0,34.2,27.6,29.8,0000.0,0003.81,0002.12,0001.52
2023-05-11 15:48:00,,0824.9,5.01,0.00,25.9,24.4,00.0,34.2,27.7,29.8,0000.0,0003.80,0002.11,0001.50
2023-05-11 15:49:00,,0824.9,5.00,0.00,25.9,24.4,00.0,34.2,27.6,29.7,0000.0,0003.66,0002.09,0001.48
2023-05-11 15:50:00,,0824.9,5.00,0.00,25.9,24.4,00.0,34.2,27.6,29.8,0000.0,0003.67,0002.11,0001.46
2023-05-11 15:51:00,,0824.9,5.00,0.00,25.9,24.4,00.0,34.2,27.6,29.9,0000.0,0003.66,0002.10,0001.44
2023-05-11 15:52:00,,0825.0,5.00,0.00,25.9,24.4,00.0,34.2,27.6,30.2,0000.0,0004.00,0002.04,0001.40
2023-05-11 15:53:00,,0825.0,5.00,0.00,25.9,24.4,00.0,34.2,27.6,30.2,0000.0,0004.44,0002.10,0001.38
2023-05-11 15:54:00,,0825.0,4.99,0.00,25.9,24.4,00.0,34.2,27.6,30.1,0000.0,0004.24,0002.11,0001.37
2023-05-11 15:55:00,,0825.1,4.99,0.00,25.9,24.4,00.0,34.2,27.6,29.8,0000.0,0004.46,0002.13,0001.35
2023-05-11 15:56:00,,0825.1,5.00,0.00,25.9,24.5,00.0,34.2,27.6,29.5,0000.0,0004.53,0002.10,0001.33
2023-05-11 15:57:00,,0825.1,5.00,0.00,25.9,24.5,00.0,34.2,27.6,29.2,0000.0,0004.83,0002.09,0001.33
2023-05-11 15:58:00,,0825.1,5.00,0.00,25.9,24.5,00.0,34.3,27.7,29.5,0000.0,0004.83,0002.08,0001.32
2023-05-11 15:59:00,,0825.1,5.01,0.00,25.9,24.5,00.0,34.3,27.7,29.6,0000.0,0004.82,0002.07,0001.33
